Change the Weather History Date:

Sunday, September 2, 2012

  Actual Average Record
Temperature  
Mean Temperature 65 °F -  
Max Temperature 73 °F 75 °F 95 °F (1953)
Min Temperature 57 °F 57 °F 37 °F (1996)
Growing Degree Days 15 (Base 50)    
Moisture  
Dew Point 58 °F    
Average Humidity 80    
Maximum Humidity 100    
Minimum Humidity 57    
Precipitation  
Precipitation 0.00 in - - ()
Sea Level Pressure  
Sea Level Pressure 30.10 in    
Wind  
Wind Speed 2 mph (SE)    
Max Wind Speed 7 mph    
Max Gust Speed -    
Visibility 10 miles    
Events      
Averages and records for this station are not official NWS values.
T = Trace of Precipitation, MM = Missing Value Source: NWS Daily Summary

Daily Weather History Graph

Daily Weather History Graph

Search for Another Location

Airport or City:

Trip Planner

Search our weather history database for the weather conditions in past years. The results will help you decide how hot, cold, wet, or windy it might be!

Date:

Astronomy

Sep. 02, 2012 Rise Set
Actual Time 6:08 AM EDT 7:11 PM EDT
Civil Twilight 5:40 AM EDT 7:40 PM EDT
Nautical Twilight 5:06 AM EDT 8:14 PM EDT
Astronomical Twilight 4:30 AM EDT 8:49 PM EDT
Moon 7:54 PM EDT (9/2) 8:16 AM EDT (9/2)
Length of Visible Light 14h 00m
Length of Day
13h 03m
Waning Gibbous, 95% of the Moon is Illuminated
Sep 2
Waning Gibbous
Sep 8
Last Quarter
Sep 15
New
Sep 22
First Quarter
Sep 29
Full

Hourly Weather History & Observations

Time (EDT) Temp. Dew Point Humidity Pressure Visibility Wind Dir Wind Speed Gust Speed Precip Events Conditions
12:56 AM 57.0 °F 55.0 °F 93% 30.11 in 10.0 mi Calm Calm - N/A   Partly Cloudy
1:56 AM 57.0 °F 55.0 °F 93% 30.10 in 10.0 mi Calm Calm - N/A   Scattered Clouds
2:56 AM 57.9 °F 55.9 °F 93% 30.10 in 10.0 mi Calm Calm - N/A   Overcast
3:56 AM 60.1 °F 57.0 °F 90% 30.09 in 10.0 mi Calm Calm - N/A   Overcast
4:56 AM 60.1 °F 57.0 °F 90% 30.09 in 10.0 mi NE 3.5 mph - N/A   Overcast
5:56 AM 61.0 °F 57.0 °F 87% 30.09 in 10.0 mi Calm Calm - N/A   Overcast
6:56 AM 61.0 °F 57.0 °F 87% 30.09 in 10.0 mi Calm Calm - N/A   Mostly Cloudy
7:56 AM 66.0 °F 59.0 °F 78% 30.10 in 10.0 mi Calm Calm - N/A   Scattered Clouds
8:56 AM 68.0 °F 55.9 °F 65% 30.11 in 10.0 mi SE 5.8 mph - N/A   Mostly Cloudy
9:56 AM 68.0 °F 57.0 °F 68% 30.11 in 10.0 mi Variable 6.9 mph - N/A   Partly Cloudy
10:56 AM 70.0 °F 57.9 °F 65% 30.10 in 10.0 mi Variable 4.6 mph - N/A   Partly Cloudy
11:56 AM 71.1 °F 59.0 °F 66% 30.09 in 10.0 mi Variable 6.9 mph - N/A   Partly Cloudy
12:56 PM 71.1 °F 60.1 °F 68% 30.09 in 10.0 mi South 5.8 mph - N/A   Overcast
1:56 PM 69.1 °F 60.1 °F 73% 30.09 in 10.0 mi Variable 3.5 mph - N/A   Overcast
2:56 PM 70.0 °F 61.0 °F 73% 30.08 in 10.0 mi South 4.6 mph - N/A   Overcast
3:56 PM 73.0 °F 57.0 °F 57% 30.07 in 10.0 mi SSE 6.9 mph - N/A   Clear
4:56 PM 70.0 °F 60.1 °F 71% 30.06 in 10.0 mi SSE 5.8 mph - N/A   Clear
5:56 PM 69.1 °F 60.1 °F 73% 30.06 in 10.0 mi SE 5.8 mph - N/A   Partly Cloudy
6:56 PM 66.9 °F 60.1 °F 79% 30.08 in 10.0 mi ESE 4.6 mph - N/A   Mostly Cloudy
7:56 PM 64.9 °F 59.0 °F 81% 30.10 in 10.0 mi Calm Calm - N/A   Mostly Cloudy
8:56 PM 63.0 °F 59.0 °F 87% 30.11 in 10.0 mi Calm Calm - N/A   Scattered Clouds
9:56 PM 62.1 °F 59.0 °F 90% 30.12 in 10.0 mi Calm Calm - N/A   Scattered Clouds
10:56 PM 57.9 °F 57.0 °F 97% 30.13 in 10.0 mi Calm Calm - N/A   Clear
11:56 PM 57.2 °F 57.2 °F 100% 30.13 in 10.0 mi Calm Calm - N/A   Clear